�������l�o���
Date,Time,MP-1(��Sv/h),MP-2(��Sv/h),MP-3(��Sv/h),MP-4(��Sv/h),MP-5(��Sv/h),MP-6(��Sv/h),MP-7(��Sv/h),MP-8(��Sv/h),����,����(m/s),���J
2017/06/22,00:00,0.957,1.504,1.000,1.800,1.198,0.522,0.946,0.877,���k��,5.5,��
2017/06/22,00:10,0.955,1.507,1.002,1.797,1.200,0.522,0.944,0.880,��,7.2,��
2017/06/22,00:20,0.957,1.506,1.002,1.801,1.200,0.523,0.948,0.878,��,8.2,��
2017/06/22,00:30,0.958,1.506,1.001,1.804,1.199,0.521,0.948,0.879,��,8.8,��
2017/06/22,00:40,0.957,1.507,1.003,1.802,1.202,0.521,0.945,0.880,��,7.7,��
2017/06/22,00:50,0.958,1.506,0.999,1.808,1.202,0.521,0.945,0.881,��,8.2,��
2017/06/22,01:00,0.957,1.508,1.003,1.805,1.203,0.521,0.944,0.880,��,9.8,��
2017/06/22,01:10,0.955,1.511,1.004,1.809,1.203,0.522,0.945,0.878,��,9.8,��
2017/06/22,01:20,0.956,1.509,1.003,1.809,1.205,0.521,0.947,0.881,���k��,10.0,��
2017/06/22,01:30,0.957,1.511,1.005,1.811,1.204,0.521,0.947,0.880,���k��,9.7,��
2017/06/22,01:40,0.957,1.510,1.006,1.813,1.206,0.522,0.946,0.879,��,11.0,��
2017/06/22,01:50,0.956,1.514,1.005,1.810,1.206,0.521,0.948,0.880,���k��,4.4,��
2017/06/22,02:00,0.957,1.511,1.006,1.814,1.203,0.521,0.948,0.879,�k��,3.5,��
2017/06/22,02:10,0.954,1.512,1.002,1.815,1.207,0.523,0.949,0.880,�k�k��,3.6,��
2017/06/22,02:20,0.956,1.513,1.006,1.811,1.208,0.521,0.948,0.878,�k�k��,3.1,��
2017/06/22,02:30,0.956,1.511,1.005,1.815,1.208,0.521,0.951,0.879,�k��,3.6,��
2017/06/22,02:40,0.954,1.514,1.005,1.815,1.209,0.522,0.951,0.880,���k��,7.1,��
2017/06/22,02:50,0.958,1.514,1.005,1.813,1.208,0.521,0.952,0.881,�k��,6.6,��
2017/06/22,03:00,0.956,1.514,1.005,1.816,1.210,0.523,0.951,0.883,���k��,9.8,��
2017/06/22,03:10,0.955,1.513,1.005,1.817,1.211,0.521,0.950,0.882,���k��,7.3,��
2017/06/22,03:20,0.956,1.514,1.008,1.817,1.213,0.521,0.951,0.882,�k��,6.1,��
2017/06/22,03:30,0.957,1.515,1.008,1.818,1.211,0.519,0.951,0.883,�k��,8.5,��
2017/06/22,03:40,0.957,1.514,1.006,1.817,1.211,0.522,0.952,0.881,���k��,6.7,��
2017/06/22,03:50,0.957,1.516,1.006,1.822,1.211,0.521,0.952,0.882,�k��,8.0,��
2017/06/22,04:00,0.958,1.515,1.005,1.819,1.211,0.522,0.951,0.882,�k��,5.7,��
2017/06/22,04:10,0.957,1.517,1.006,1.820,1.211,0.521,0.952,0.881,���k��,4.3,��
2017/06/22,04:20,0.956,1.516,1.005,1.819,1.212,0.522,0.951,0.884,�k��,2.3,��
2017/06/22,04:30,0.956,1.514,1.008,1.821,1.213,0.520,0.951,0.883,�k,1.4,��
2017/06/22,04:40,0.957,1.518,1.006,1.818,1.213,0.521,0.949,0.881,�k�k��,3.2,��
2017/06/22,04:50,0.958,1.517,1.009,1.822,1.212,0.521,0.950,0.883,�k��,3.7,��
2017/06/22,05:00,0.958,1.516,1.006,1.820,1.214,0.521,0.950,0.882,�k��,3.5,��
2017/06/22,05:10,0.961,1.518,1.007,1.819,1.215,0.522,0.951,0.882,��,4.3,��
2017/06/22,05:20,0.958,1.519,1.008,1.821,1.214,0.521,0.950,0.883,��,3.8,��
2017/06/22,05:30,0.958,1.518,1.007,1.819,1.215,0.522,0.951,0.882,��,4.7,��
2017/06/22,05:40,0.958,1.520,1.006,1.822,1.217,0.522,0.950,0.883,��,4.6,��
2017/06/22,05:50,0.961,1.519,1.009,1.821,1.215,0.522,0.954,0.884,��,6.0,��
2017/06/22,06:00,0.959,1.521,1.007,1.821,1.218,0.521,0.952,0.884,��,5.9,��
2017/06/22,06:10,0.961,1.519,1.008,1.824,1.216,0.521,0.953,0.883,��,5.2,��
2017/06/22,06:20,0.960,1.520,1.011,1.822,1.218,0.519,0.953,0.883,��,6.4,��
2017/06/22,06:30,0.961,1.523,1.007,1.822,1.217,0.520,0.952,0.883,��,6.0,��
2017/06/22,06:40,0.960,1.522,1.007,1.824,1.219,0.519,0.951,0.883,��,7.7,��
2017/06/22,06:50,0.960,1.520,1.007,1.822,1.218,0.519,0.953,0.881,��,7.4,��
2017/06/22,07:00,0.960,1.518,1.011,1.825,1.219,0.520,0.953,0.883,��,7.7,��
2017/06/22,07:10,0.957,1.518,1.009,1.825,1.220,0.520,0.951,0.883,��,8.7,��
2017/06/22,07:20,0.959,1.519,1.009,1.827,1.217,0.519,0.951,0.881,��,7.4,��
2017/06/22,07:30,0.959,1.518,1.007,1.825,1.218,0.520,0.953,0.883,���k��,7.6,��
2017/06/22,07:40,0.959,1.519,1.009,1.825,1.218,0.520,0.953,0.883,��,6.4,��
2017/06/22,07:50,0.959,1.521,1.008,1.826,1.219,0.521,0.953,0.883,��,6.3,��
2017/06/22,08:00,0.958,1.522,1.009,1.829,1.218,0.521,0.951,0.883,��,5.3,��
2017/06/22,08:10,0.959,1.522,1.010,1.826,1.219,0.521,0.952,0.883,���k��,7.4,��
2017/06/22,08:20,0.959,1.523,1.008,1.829,1.220,0.521,0.954,0.883,��,4.8,��
2017/06/22,08:30,0.958,1.520,1.011,1.828,1.222,0.522,0.953,0.881,���k��,6.2,��
2017/06/22,08:40,0.960,1.518,1.010,1.827,1.220,0.521,0.953,0.883,���k��,6.3,��
2017/06/22,08:50,0.959,1.517,1.008,1.827,1.221,0.520,0.955,0.883,��,6.4,��
2017/06/22,09:00,0.959,1.521,1.008,1.831,1.221,0.520,0.953,0.884,��,5.2,��
2017/06/22,09:10,0.959,1.522,1.006,1.827,1.219,0.521,0.954,0.882,��,2.8,��
2017/06/22,09:20,0.962,1.525,1.002,1.831,1.223,0.522,0.954,0.882,��,3.0,��
2017/06/22,09:30,0.963,1.522,1.008,1.832,1.219,0.521,0.956,0.882,�k��,3.4,��
2017/06/22,09:40,0.962,1.525,1.011,1.834,1.220,0.523,0.957,0.881,�k��,4.2,��
2017/06/22,09:50,0.964,1.524,1.009,1.830,1.225,0.522,0.955,0.883,�k��,6.0,��
2017/06/22,10:00,0.966,1.525,1.011,1.831,1.225,0.523,0.956,0.885,���k��,3.6,��
2017/06/22,10:10,0.966,1.527,1.012,1.834,1.228,0.523,0.956,0.884,���k��,4.7,�L
2017/06/22,10:20,0.966,1.526,1.010,1.832,1.228,0.523,0.956,0.883,�k��,5.2,��
2017/06/22,10:30,0.966,1.524,1.010,1.835,1.230,0.523,0.957,0.885,���k��,4.8,��
2017/06/22,10:40,0.965,1.526,1.014,1.834,1.228,0.522,0.957,0.886,���k��,6.2,��
2017/06/22,10:50,0.967,1.531,1.008,1.836,1.232,0.523,0.958,0.884,���k��,6.9,��
2017/06/22,11:00,0.970,1.532,1.011,1.835,1.230,0.524,0.959,0.885,���k��,7.8,��
2017/06/22,11:10,0.969,1.534,1.014,1.833,1.232,0.523,0.959,0.885,���k��,8.1,��
2017/06/22,11:20,0.970,1.532,1.014,1.833,1.234,0.526,0.958,0.885,���k��,5.8,��
2017/06/22,11:30,0.969,1.534,1.015,1.834,1.233,0.524,0.960,0.885,���k��,6.8,��
2017/06/22,11:40,0.970,1.537,1.014,1.836,1.232,0.527,0.960,0.888,���k��,4.9,��
2017/06/22,11:50,0.975,1.536,1.019,1.836,1.237,0.526,0.960,0.888,�k��,7.3,��
2017/06/22,12:00,0.973,1.540,1.018,1.839,1.236,0.525,0.958,0.887,�k��,5.7,��
2017/06/22,12:10,0.973,1.538,1.016,1.839,1.237,0.527,0.958,0.889,���k��,7.1,��
2017/06/22,12:20,0.974,1.537,1.018,1.840,1.241,0.525,0.961,0.887,���k��,6.1,��
2017/06/22,12:30,0.976,1.541,1.018,1.842,1.241,0.527,0.960,0.887,���k��,6.1,��
2017/06/22,12:40,0.974,1.541,1.019,1.842,1.241,0.525,0.961,0.887,���k��,6.8,��
2017/06/22,12:50,0.976,1.542,1.020,1.843,1.240,0.526,0.961,0.888,���k��,8.4,��
2017/06/22,13:00,0.976,1.545,1.022,1.840,1.243,0.526,0.962,0.888,���k��,6.0,��
2017/06/22,13:10,0.977,1.542,1.021,1.845,1.243,0.526,0.961,0.888,���k��,6.6,��
2017/06/22,13:20,0.978,1.546,1.023,1.845,1.244,0.526,0.962,0.888,���k��,6.5,��
2017/06/22,13:30,0.978,1.548,1.021,1.845,1.245,0.527,0.962,0.889,���k��,6.5,��
2017/06/22,13:40,0.978,1.548,1.023,1.847,1.245,0.526,0.964,0.888,��,4.7,��
2017/06/22,13:50,0.981,1.547,1.024,1.850,1.247,0.528,0.963,0.889,���k��,5.5,��
2017/06/22,14:00,0.979,1.548,1.025,1.848,1.245,0.528,0.963,0.888,���k��,5.4,��
2017/06/22,14:10,0.981,1.550,1.024,1.847,1.247,0.526,0.962,0.889,��,5.2,��
2017/06/22,14:20,0.981,1.550,1.025,1.849,1.246,0.528,0.963,0.892,��,5.5,��
2017/06/22,14:30,0.981,1.549,1.028,1.853,1.250,0.529,0.962,0.887,��,5.4,��
2017/06/22,14:40,0.983,1.548,1.025,1.849,1.250,0.529,0.962,0.890,��,5.6,��
2017/06/22,14:50,0.981,1.550,1.027,1.850,1.251,0.529,0.966,0.889,��,4.9,��
2017/06/22,15:00,0.981,1.554,1.028,1.851,1.251,0.528,0.963,0.890,���쐼,4.3,��
2017/06/22,15:10,0.981,1.553,1.026,1.853,1.250,0.528,0.964,0.889,��,6.1,��
2017/06/22,15:20,0.983,1.555,1.027,1.853,1.249,0.526,0.964,0.889,��,5.5,��
2017/06/22,15:30,0.982,1.555,1.026,1.851,1.251,0.527,0.964,0.889,��,5.2,��
2017/06/22,15:40,0.982,1.554,1.029,1.853,1.251,0.527,0.964,0.889,��,4.8,��
2017/06/22,15:50,0.980,1.556,1.027,1.854,1.250,0.528,0.962,0.890,���k��,6.5,��
2017/06/22,16:00,0.981,1.556,1.027,1.851,1.251,0.527,0.963,0.888,��,6.0,��
2017/06/22,16:10,0.983,1.555,1.029,1.853,1.252,0.527,0.961,0.889,��,5.1,��
2017/06/22,16:20,0.984,1.557,1.029,1.855,1.251,0.527,0.962,0.887,��,4.8,��
2017/06/22,16:30,0.985,1.554,1.026,1.853,1.251,0.526,0.964,0.889,��,4.1,��
2017/06/22,16:40,0.982,1.555,1.023,1.853,1.253,0.528,0.962,0.892,��,4.7,��
2017/06/22,16:50,0.983,1.558,1.027,1.851,1.253,0.527,0.961,0.886,���k��,5.1,��
2017/06/22,17:00,0.983,1.555,1.028,1.855,1.250,0.527,0.962,0.889,��,4.3,��
2017/06/22,17:10,0.982,1.555,1.026,1.854,1.253,0.527,0.961,0.890,���k��,4.8,��
2017/06/22,17:20,0.983,1.556,1.029,1.853,1.252,0.528,0.962,0.887,��,4.1,��
2017/06/22,17:30,0.985,1.555,1.030,1.854,1.255,0.528,0.964,0.887,��,3.5,��
2017/06/22,17:40,0.984,1.557,1.034,1.855,1.252,0.529,0.962,0.890,��,4.3,��
2017/06/22,17:50,0.984,1.556,1.030,1.858,1.254,0.530,0.964,0.890,��,4.5,��
2017/06/22,18:00,0.983,1.554,1.033,1.858,1.254,0.530,0.964,0.891,��,4.5,��
2017/06/22,18:10,0.983,1.556,1.031,1.855,1.253,0.529,0.963,0.892,��,4.9,��
2017/06/22,18:20,0.983,1.556,1.034,1.857,1.255,0.529,0.963,0.893,��,4.2,��
2017/06/22,18:30,0.983,1.556,1.034,1.860,1.254,0.529,0.964,0.892,��,4.6,��
2017/06/22,18:40,0.983,1.556,1.032,1.860,1.254,0.529,0.963,0.891,��,4.3,��
2017/06/22,18:50,0.984,1.557,1.031,1.857,1.254,0.529,0.964,0.891,��,4.8,��
2017/06/22,19:00,0.985,1.558,1.031,1.858,1.252,0.529,0.964,0.891,��,4.5,��
2017/06/22,19:10,0.984,1.557,1.034,1.859,1.254,0.530,0.964,0.892,��,6.0,��
2017/06/22,19:20,0.984,1.558,1.033,1.859,1.253,0.530,0.964,0.892,��,4.1,��
2017/06/22,19:30,0.986,1.558,1.032,1.859,1.252,0.528,0.965,0.891,���쐼,4.0,��
2017/06/22,19:40,0.984,1.559,1.033,1.860,1.253,0.529,0.963,0.890,���쐼,2.8,��
2017/06/22,19:50,0.984,1.558,1.033,1.860,1.255,0.528,0.964,0.892,���쐼,1.2,��
2017/06/22,20:00,0.982,1.558,1.031,1.858,1.254,0.529,0.967,0.891,���쐼,0.9,��
2017/06/22,20:10,0.983,1.559,1.032,1.859,1.253,0.529,0.965,0.891,���k��,0.6,��
2017/06/22,20:20,0.983,1.558,1.033,1.859,1.256,0.528,0.964,0.891,�k��,0.6,��
2017/06/22,20:30,0.983,1.556,1.031,1.856,1.254,0.529,0.965,0.892,�k,0.9,��
2017/06/22,20:40,0.980,1.559,1.030,1.858,1.254,0.529,0.965,0.891,-,CALM,��
2017/06/22,20:50,0.982,1.559,1.031,1.860,1.254,0.528,0.965,0.890,���k��,0.6,��
2017/06/22,21:00,0.981,1.557,1.030,1.854,1.255,0.528,0.965,0.891,��,1.1,��
2017/06/22,21:10,0.982,1.559,1.032,1.858,1.255,0.528,0.965,0.890,��,1.7,��
2017/06/22,21:20,0.981,1.557,1.032,1.857,1.256,0.527,0.964,0.891,���쐼,1.1,��
2017/06/22,21:30,0.980,1.558,1.030,1.855,1.254,0.528,0.963,0.891,���k��,2.3,��
2017/06/22,21:40,0.983,1.556,1.030,1.860,1.253,0.528,0.965,0.889,���k��,2.6,��
2017/06/22,21:50,0.983,1.556,1.032,1.856,1.254,0.528,0.963,0.891,���k��,3.2,��
2017/06/22,22:00,0.982,1.555,1.030,1.855,1.255,0.529,0.965,0.890,���k��,3.6,��
2017/06/22,22:10,0.983,1.558,1.029,1.856,1.253,0.527,0.963,0.892,���k��,3.2,��
2017/06/22,22:20,0.981,1.557,1.031,1.858,1.259,0.528,0.963,0.891,��,3.0,��
2017/06/22,22:30,0.981,1.559,1.031,1.857,1.254,0.529,0.962,0.891,��,2.8,��
2017/06/22,22:40,0.982,1.557,1.031,1.855,1.254,0.528,0.962,0.891,��,2.0,��
2017/06/22,22:50,0.980,1.558,1.031,1.857,1.256,0.528,0.965,0.890,�쐼,1.7,��
2017/06/22,23:00,0.980,1.556,1.028,1.856,1.253,0.527,0.962,0.890,��쐼,2.3,��
2017/06/22,23:10,0.983,1.559,1.030,1.859,1.255,0.527,0.964,0.890,���쐼,2.3,��
2017/06/22,23:20,0.980,1.557,1.033,1.859,1.256,0.529,0.963,0.891,�쐼,2.9,��
2017/06/22,23:30,0.981,1.556,1.030,1.859,1.255,0.528,0.962,0.890,�쐼,3.1,��
2017/06/22,23:40,0.981,1.556,1.029,1.858,1.256,0.528,0.963,0.890,�쐼,3.3,��
2017/06/22,23:50,0.982,1.557,1.030,1.857,1.254,0.528,0.963,0.890,���쐼,2.3,��
